When you browse on this site, cookies collect data to enhance your experience and personalize the content and advertising you see.
Visit our Privacy Policy to learn more. By continuing to use the site, you agree to this use of cookies and data.
  • In Slovakia
  • List of Countries
  • For 7 days
  • Water Temperature
  • Weather Map
  • Weather Widgets
  • user-avatar
    Login

    Hourly Weather Lipszczany

    Today, 28 May, Thursday

    Time Temperature Precipitation Wind Pressure Humidity
    00:00 +9°C° 0 mm 2 mps 754 mmHg 94%
    01:00 +8°C° 0 mm 2 mps 754 mmHg 93%
    02:00 +8°C° 0 mm 2 mps 754 mmHg 93%
    03:00 +8°C° 0 mm 2 mps 753 mmHg 92%
    04:00 +8°C° 0 mm 2 mps 753 mmHg 92%
    05:00 +8°C° 0 mm 2 mps 753 mmHg 91%
    06:00 +10°C° 0 mm 2 mps 753 mmHg 85%
    07:00 +12°C° 0 mm 3 mps 753 mmHg 79%
    08:00 +14°C° 0 mm 3 mps 753 mmHg 73%
    09:00 +16°C° 0 mm 3 mps 753 mmHg 68%
    10:00 +17°C° 0 mm 3 mps 753 mmHg 63%
    11:00 +18°C° 0 mm 4 mps 753 mmHg 57%
    12:00 +19°C° 0.1 mm 4 mps 752 mmHg 56%
    13:00 +19°C° 0.1 mm 3 mps 752 mmHg 55%
    14:00 +19°C° 0.1 mm 3 mps 752 mmHg 54%
    15:00 +19°C° 0 mm 3 mps 752 mmHg 55%
    16:00 +19°C° 0 mm 3 mps 751 mmHg 55%
    17:00 +19°C° 0 mm 3 mps 751 mmHg 56%
    18:00 +18°C° 0 mm 4 mps 751 mmHg 64%
    19:00 +15°C° 0 mm 4 mps 751 mmHg 71%
    20:00 +14°C° 0 mm 4 mps 751 mmHg 79%
    21:00 +13°C° 0 mm 4 mps 751 mmHg 81%
    22:00 +12°C° 0 mm 5 mps 751 mmHg 83%
    23:00 +9°C° 0 mm 5 mps 751 mmHg 85%

    Tomorrow, 29 May, Friday

    Time Temperature Precipitation Wind Pressure Humidity
    00:00 +9°C° 0 mm 5 mps 751 mmHg 82%
    01:00 +8°C° 0 mm 5 mps 751 mmHg 80%
    02:00 +7°C° 0 mm 6 mps 751 mmHg 78%
    03:00 +7°C° 0 mm 5 mps 751 mmHg 80%
    04:00 +6°C° 0 mm 5 mps 751 mmHg 81%
    05:00 +6°C° 0 mm 5 mps 751 mmHg 82%
    06:00 +7°C° 0 mm 6 mps 751 mmHg 79%
    07:00 +9°C° 0 mm 6 mps 751 mmHg 76%
    08:00 +10°C° 0 mm 7 mps 751 mmHg 72%
    09:00 +12°C° 0 mm 7 mps 751 mmHg 67%
    10:00 +14°C° 0 mm 7 mps 750 mmHg 62%
    11:00 +15°C° 0 mm 8 mps 750 mmHg 57%
    12:00 +15°C° 0 mm 8 mps 750 mmHg 58%
    13:00 +15°C° 0 mm 7 mps 750 mmHg 59%
    14:00 +15°C° 0 mm 7 mps 750 mmHg 59%
    15:00 +15°C° 0.1 mm 7 mps 749 mmHg 61%
    16:00 +15°C° 0.1 mm 6 mps 749 mmHg 63%
    17:00 +15°C° 0.1 mm 5 mps 749 mmHg 65%
    18:00 +14°C° 0.1 mm 5 mps 749 mmHg 68%
    19:00 +13°C° 0.1 mm 5 mps 748 mmHg 71%
    20:00 +12°C° 0.1 mm 5 mps 748 mmHg 74%
    21:00 +11°C° 0.1 mm 6 mps 748 mmHg 75%
    22:00 +10°C° 0.1 mm 6 mps 748 mmHg 75%
    23:00 +10°C° 0.1 mm 7 mps 748 mmHg 76%

    Day after tomorrow, 30 May, Saturday

    Time Temperature Precipitation Wind Pressure Humidity
    00:00 +10°C° 0 mm 7 mps 747 mmHg 76%
    01:00 +10°C° 0 mm 7 mps 747 mmHg 76%
    02:00 +10°C° 0 mm 7 mps 747 mmHg 76%
    03:00 +9°C° 0.2 mm 7 mps 747 mmHg 79%
    04:00 +9°C° 0.2 mm 7 mps 746 mmHg 81%
    05:00 +8°C° 0.2 mm 7 mps 746 mmHg 83%
    06:00 +9°C° 0.1 mm 7 mps 746 mmHg 81%
    07:00 +10°C° 0.1 mm 7 mps 746 mmHg 78%
    08:00 +11°C° 0.1 mm 6 mps 746 mmHg 75%
    09:00 +12°C° 0 mm 7 mps 746 mmHg 73%
    10:00 +14°C° 0 mm 7 mps 746 mmHg 72%
    11:00 +15°C° 0 mm 7 mps 746 mmHg 70%
    12:00 +14°C° 0.8 mm 7 mps 746 mmHg 78%
    13:00 +12°C° 0.8 mm 7 mps 746 mmHg 85%
    14:00 +11°C° 0.8 mm 7 mps 746 mmHg 92%
    15:00 +11°C° 3.1 mm 6 mps 745 mmHg 93%
    16:00 +11°C° 3.1 mm 6 mps 745 mmHg 94%
    17:00 +11°C° 3.1 mm 6 mps 745 mmHg 95%
    18:00 +13°C° 0.8 mm 5 mps 745 mmHg 93%
    19:00 +13°C° 0.8 mm 5 mps 745 mmHg 92%
    20:00 +14°C° 0.8 mm 5 mps 745 mmHg 90%
    21:00 +13°C° 0.6 mm 5 mps 745 mmHg 90%
    22:00 +13°C° 0.6 mm 5 mps 745 mmHg 89%
    23:00 +13°C° 0.6 mm 6 mps 745 mmHg 88%

    31 May, Sunday

    Time Temperature Precipitation Wind Pressure Humidity
    00:00 +11°C° 0 mm 6 mps 745 mmHg 86%
    01:00 +11°C° 0 mm 6 mps 745 mmHg 84%
    02:00 +11°C° 0 mm 6 mps 745 mmHg 82%
    03:00 +11°C° 0 mm 6 mps 745 mmHg 81%
    04:00 +11°C° 0 mm 6 mps 745 mmHg 80%
    05:00 +11°C° 0 mm 7 mps 745 mmHg 79%
    06:00 +12°C° 0 mm 7 mps 745 mmHg 78%
    07:00 +14°C° 0 mm 7 mps 746 mmHg 76%
    08:00 +15°C° 0 mm 7 mps 746 mmHg 74%
    09:00 +16°C° 0 mm 7 mps 746 mmHg 72%
    10:00 +17°C° 0 mm 8 mps 746 mmHg 70%
    11:00 +18°C° 0 mm 8 mps 747 mmHg 68%
    12:00 +20°C° 0 mm 8 mps 747 mmHg 68%
    13:00 +20°C° 0 mm 7 mps 747 mmHg 67%
    14:00 +20°C° 0 mm 7 mps 747 mmHg 66%
    15:00 +20°C° 0 mm 7 mps 747 mmHg 68%
    16:00 +19°C° 0 mm 6 mps 748 mmHg 69%
    17:00 +19°C° 0 mm 5 mps 748 mmHg 71%
    18:00 +17°C° 0 mm 5 mps 748 mmHg 73%
    19:00 +18°C° 0 mm 4 mps 749 mmHg 74%
    20:00 +17°C° 0 mm 4 mps 749 mmHg 76%
    21:00 +15°C° 0 mm 4 mps 749 mmHg 77%
    22:00 +13°C° 0 mm 4 mps 750 mmHg 78%
    23:00 +12°C° 0 mm 4 mps 750 mmHg 79%

    1 June, Monday

    Time Temperature Precipitation Wind Pressure Humidity
    00:00 +12°C° 0 mm 4 mps 750 mmHg 80%
    01:00 +11°C° 0 mm 4 mps 751 mmHg 80%
    02:00 +11°C° 0 mm 4 mps 751 mmHg 80%
    03:00 +11°C° 0 mm 4 mps 751 mmHg 81%
    04:00 +10°C° 0 mm 4 mps 751 mmHg 82%
    05:00 +10°C° 0 mm 4 mps 751 mmHg 83%
    06:00 +12°C° 0 mm 4 mps 751 mmHg 78%
    07:00 +13°C° 0 mm 5 mps 752 mmHg 73%
    08:00 +15°C° 0 mm 5 mps 752 mmHg 67%
    09:00 +16°C° 0 mm 5 mps 752 mmHg 63%
    10:00 +17°C° 0 mm 6 mps 752 mmHg 59%
    11:00 +19°C° 0 mm 6 mps 752 mmHg 55%
    12:00 +20°C° 0 mm 6 mps 752 mmHg 55%
    13:00 +20°C° 0 mm 6 mps 752 mmHg 55%
    14:00 +20°C° 0 mm 6 mps 752 mmHg 54%
    15:00 +20°C° 0 mm 6 mps 752 mmHg 56%
    16:00 +20°C° 0 mm 5 mps 752 mmHg 59%
    17:00 +20°C° 0 mm 5 mps 752 mmHg 61%
    18:00 +18°C° 0 mm 4 mps 751 mmHg 66%
    19:00 +17°C° 0 mm 3 mps 751 mmHg 70%
    20:00 +16°C° 0 mm 3 mps 751 mmHg 75%
    21:00 +14°C° 0 mm 3 mps 752 mmHg 79%
    22:00 +14°C° 0 mm 2 mps 752 mmHg 82%
    23:00 +13°C° 0 mm 2 mps 752 mmHg 86%

    2 June, Tuesday

    Time Temperature Precipitation Wind Pressure Humidity
    00:00 +12°C° 0 mm 2 mps 752 mmHg 88%
    01:00 +12°C° 0 mm 2 mps 752 mmHg 89%
    02:00 +10°C° 0 mm 2 mps 752 mmHg 91%
    03:00 +10°C° 0 mm 2 mps 752 mmHg 92%
    04:00 +10°C° 0 mm 2 mps 752 mmHg 92%
    05:00 +10°C° 0 mm 2 mps 752 mmHg 93%
    06:00 +13°C° 0 mm 2 mps 752 mmHg 85%
    07:00 +14°C° 0 mm 3 mps 752 mmHg 78%
    08:00 +17°C° 0 mm 3 mps 752 mmHg 70%
    09:00 +18°C° 0 mm 3 mps 752 mmHg 65%
    10:00 +19°C° 0 mm 3 mps 752 mmHg 61%
    11:00 +20°C° 0 mm 4 mps 752 mmHg 56%
    12:00 +21°C° 0 mm 3 mps 752 mmHg 56%
    13:00 +21°C° 0 mm 3 mps 752 mmHg 56%
    14:00 +21°C° 0 mm 3 mps 751 mmHg 56%
    15:00 +21°C° 0.1 mm 3 mps 751 mmHg 57%
    16:00 +21°C° 0.1 mm 3 mps 751 mmHg 58%
    17:00 +21°C° 0.1 mm 3 mps 751 mmHg 59%
    18:00 +20°C° 0.1 mm 2 mps 750 mmHg 66%
    19:00 +19°C° 0.1 mm 2 mps 750 mmHg 73%
    20:00 +18°C° 0.1 mm 1 mps 750 mmHg 79%
    21:00 +16°C° 0 mm 1 mps 750 mmHg 83%
    22:00 +15°C° 0 mm 1 mps 750 mmHg 86%
    23:00 +14°C° 0 mm 1 mps 751 mmHg 89%
    Show more